| time (UTC) | temp F | wind direction | speed MPH | gust MPH | rain 1hr in | rain 24hr in | rain mn in | humidity % | barometer mb |
| 20260507201501 | 64 | 41 | 1.0 | 8.0 | 0.00 | 0.20 | 0.00 | 34 | 1003.6 |
| 20260507194609 | 63 | 79 | 1.0 | 13.0 | 0.00 | 0.24 | 0.00 | 35 | 1003.8 |
| 20260507193057 | 64 | 243 | 3.0 | 10.0 | 0.00 | 0.24 | 0.00 | 32 | 1003.8 |
| 20260507191615 | 64 | 340 | 1.0 | 5.0 | 0.00 | 0.24 | 0.00 | 37 | 1003.9 |
| 20260507190056 | 64 | 217 | 3.0 | 10.0 | 0.00 | 0.24 | 0.00 | 35 | 1004.1 |
| 20260507184602 | 64 | 251 | 2.0 | 9.0 | 0.00 | 0.24 | 0.00 | 35 | 1004.2 |
| 20260507183052 | 64 | 239 | 3.0 | 10.0 | 0.00 | 0.24 | 0.00 | 36 | 1004.2 |
| 20260507181552 | 64 | 292 | 1.0 | 6.0 | 0.00 | 0.24 | 0.00 | 36 | 1004.4 |
| 20260507180050 | 64 | 229 | 3.0 | 11.0 | 0.00 | 0.24 | 0.00 | 34 | 1004.5 |
| 20260507174548 | 64 | 55 | 0.0 | 9.0 | 0.00 | 0.24 | 0.00 | 43 | 1004.3 |
| 20260507173045 | 63 | 289 | 3.0 | 9.0 | 0.00 | 0.24 | 0.00 | 40 | 1004.4 |
| 20260507171549 | 62 | 219 | 1.0 | 10.0 | 0.00 | 0.24 | 0.00 | 41 | 1004.6 |
| 20260507170042 | 62 | 286 | 2.0 | 10.0 | 0.00 | 0.24 | 0.00 | 46 | 1004.6 |
| 20260507164555 | 61 | 202 | 1.0 | 9.0 | 0.00 | 0.24 | 0.00 | 50 | 1004.8 |
| 20260507163039 | 60 | 250 | 0.0 | 11.0 | 0.00 | 0.24 | 0.00 | 57 | 1005.0 |
| 20260507161539 | 60 | 36 | 1.0 | 9.0 | 0.00 | 0.24 | 0.00 | 57 | 1005.1 |
| 20260507160037 | 59 | 321 | 1.0 | 7.0 | 0.00 | 0.24 | 0.00 | 60 | 1005.2 |
| 20260507154537 | 61 | 230 | 1.0 | 5.0 | 0.00 | 0.24 | 0.00 | 58 | 1005.4 |
| 20260507153038 | 60 | 52 | 1.0 | 5.0 | 0.00 | 0.24 | 0.00 | 57 | 1005.6 |
| 20260507151537 | 60 | 94 | 2.0 | 6.0 | 0.00 | 0.24 | 0.00 | 55 | 1005.6 |
| 20260507150035 | 61 | 234 | 0.0 | 7.0 | 0.00 | 0.24 | 0.00 | 61 | 1005.8 |
| 20260507144533 | 59 | 294 | 2.0 | 6.0 | 0.00 | 0.24 | 0.00 | 55 | 1006.0 |
| 20260507143053 | 59 | 236 | 1.0 | 7.0 | 0.00 | 0.24 | 0.00 | 59 | 1006.0 |
| 20260507141538 | 58 | 307 | 1.0 | 7.0 | 0.00 | 0.24 | 0.00 | 58 | 1005.9 |
| 20260507140026 | 57 | 252 | 1.0 | 4.0 | 0.00 | 0.24 | 0.00 | 61 | 1005.9 |
| 20260507134524 | 56 | 272 | 0.0 | 3.0 | 0.00 | 0.24 | 0.00 | 67 | 1005.8 |
| 20260507133023 | 55 | 34 | 0.0 | 5.0 | 0.00 | 0.24 | 0.00 | 66 | 1006.1 |
| 20260507131522 | 54 | 245 | 0.0 | 6.0 | 0.00 | 0.24 | 0.00 | 69 | 1006.3 |
| 20260507130036 | 54 | 75 | 0.0 | 4.0 | 0.00 | 0.24 | 0.00 | 72 | 1006.4 |
| 20260507124519 | 53 | 48 | 0.0 | 3.0 | 0.00 | 0.24 | 0.00 | 73 | 1006.4 |
| 20260507123018 | 51 | 275 | 0.0 | 4.0 | 0.00 | 0.24 | 0.00 | 77 | 1006.5 |
| 20260507121517 | 51 | 307 | 1.0 | 4.0 | 0.00 | 0.24 | 0.00 | 80 | 1006.6 |
| 20260507120015 | 50 | 37 | 1.0 | 4.0 | 0.00 | 0.24 | 0.00 | 83 | 1006.6 |
| 20260507114520 | 49 | 63 | 0.0 | 1.0 | 0.00 | 0.24 | 0.00 | 85 | 1006.5 |
| 20260507113014 | 49 | 1 | 0.0 | 1.0 | 0.00 | 0.24 | 0.00 | 86 | 1006.4 |
| 20260507111513 | 48 | 21 | 0.0 | 0.0 | 0.00 | 0.24 | 0.00 | 86 | 1006.2 |
| 20260507110014 | 47 | 21 | 0.0 | 1.0 | 0.00 | 0.24 | 0.00 | 85 | 1006.6 |
| 20260507104511 | 48 | 43 | 0.0 | 0.0 | 0.00 | 0.24 | 0.00 | 87 | 1005.9 |
| 20260507103009 | 48 | 295 | 0.0 | 4.0 | 0.00 | 0.24 | 0.00 | 87 | 1005.6 |
| 20260507101509 | 48 | 23 | 0.0 | 3.0 | 0.00 | 0.24 | 0.00 | 88 | 1005.9 |
| 20260507100009 | 48 | 356 | 0.0 | 3.0 | 0.00 | 0.24 | 0.00 | 88 | 1005.5 |
| 20260507094508 | 48 | 40 | 0.0 | 2.0 | 0.00 | 0.24 | 0.00 | 89 | 1005.7 |
| 20260507093005 | 48 | 73 | 0.0 | 2.0 | 0.00 | 0.24 | 0.00 | 89 | 1005.6 |
| 20260507091508 | 48 | 93 | 0.0 | 1.0 | 0.00 | 0.24 | 0.00 | 89 | 1006.0 |
| 20260507090002 | 48 | 264 | 0.0 | 3.0 | 0.00 | 0.24 | 0.00 | 90 | 1005.8 |
| 20260507084500 | 48 | 47 | 0.0 | 3.0 | 0.00 | 0.24 | 0.00 | 90 | 1005.6 |
| 20260507083059 | 48 | 4 | 0.0 | 1.0 | 0.00 | 0.24 | 0.00 | 91 | 1005.2 |
| 20260507081601 | 49 | 93 | 0.0 | 2.0 | 0.00 | 0.24 | 0.00 | 90 | 1005.4 |
| 20260507080112 | 49 | 61 | 0.0 | 2.0 | 0.00 | 0.24 | 0.00 | 90 | 1005.7 |
| 20260507074557 | 50 | 60 | 0.0 | 2.0 | 0.00 | 0.24 | 0.00 | 90 | 1005.7 |
| 20260507073051 | 50 | 298 | 0.0 | 1.0 | 0.00 | 0.24 | 0.00 | 91 | 1005.2 |
| 20260507071550 | 50 | 262 | 0.0 | 1.0 | 0.00 | 0.24 | 0.00 | 91 | 1004.9 |
| 20260507070058 | 50 | 26 | 0.0 | 2.0 | 0.00 | 0.24 | 0.00 | 91 | 1004.9 |
| 20260507064620 | 50 | 43 | 0.0 | 3.0 | 0.00 | 0.24 | 0.00 | 91 | 1004.8 |
| 20260507063052 | 50 | 5 | 0.0 | 1.0 | 0.00 | 0.24 | 0.00 | 92 | 1004.6 |
| 20260507061546 | 50 | 261 | 0.0 | 2.0 | 0.00 | 0.24 | 0.00 | 93 | 1004.7 |
| 20260507060106 | 51 | 59 | 0.0 | 3.0 | 0.00 | 0.24 | 0.00 | 94 | 1004.8 |
| 20260507054547 | 52 | 68 | 0.0 | 3.0 | 0.00 | 0.24 | 0.00 | 95 | 1005.1 |
| 20260507053041 | 52 | 25 | 0.0 | 2.0 | 0.00 | 0.24 | 0.00 | 95 | 1004.8 |
| 20260507051551 | 52 | 300 | 0.0 | 4.0 | 0.00 | 0.24 | 0.00 | 95 | 1005.0 |
| 20260507050044 | 53 | 5 | 0.0 | 4.0 | 0.00 | 0.24 | 0.00 | 95 | 1005.2 |
| 20260507044533 | 54 | 13 | 0.0 | 2.0 | 0.00 | 0.24 | 0.00 | 95 | 1004.8 |
| 20260507043029 | 56 | 264 | 1.0 | 5.0 | 0.00 | 0.24 | 0.00 | 95 | 1004.7 |
| 20260507041528 | 57 | 50 | 0.0 | 4.0 | 0.00 | 0.24 | 0.00 | 96 | 1004.9 |
| 20260507040024 | 58 | 311 | 0.0 | 1.0 | 0.00 | 0.24 | 0.00 | 96 | 1004.7 |
| 20260507034523 | 58 | 270 | 0.0 | 6.0 | 0.00 | 0.24 | 0.24 | 96 | 1004.4 |
| 20260507033021 | 59 | 4 | 1.0 | 10.0 | 0.00 | 0.24 | 0.24 | 96 | 1004.1 |
| 20260507031518 | 59 | 150 | 1.0 | 5.0 | 0.00 | 0.24 | 0.24 | 96 | 1003.8 |
| 20260507030027 | 59 | 210 | 0.0 | 4.0 | 0.00 | 0.24 | 0.24 | 96 | 1003.7 |
| 20260507024524 | 59 | 173 | 0.0 | 3.0 | 0.00 | 0.24 | 0.24 | 96 | 1003.6 |
| 20260507023017 | 59 | 142 | 0.0 | 2.0 | 0.00 | 0.24 | 0.24 | 96 | 1003.8 |
| 20260507021517 | 59 | 259 | 1.0 | 7.0 | 0.00 | 0.24 | 0.24 | 96 | 1003.7 |
| 20260507020015 | 58 | 210 | 0.0 | 5.0 | 0.00 | 0.24 | 0.24 | 96 | 1003.7 |
| 20260507014515 | 58 | 283 | 1.0 | 4.0 | 0.00 | 0.24 | 0.24 | 96 | 1003.9 |
| 20260507013016 | 58 | 222 | 1.0 | 5.0 | 0.00 | 0.24 | 0.24 | 96 | 1004.0 |
| 20260507011514 | 59 | 196 | 0.0 | 5.0 | 0.00 | 0.24 | 0.24 | 96 | 1004.1 |
| 20260507010015 | 59 | 258 | 0.0 | 4.0 | 0.00 | 0.24 | 0.24 | 96 | 1004.1 |
| 20260507004515 | 59 | 255 | 1.0 | 9.0 | 0.00 | 0.24 | 0.24 | 96 | 1004.0 |
| 20260507003011 | 59 | 212 | 1.0 | 5.0 | 0.00 | 0.24 | 0.24 | 96 | 1003.9 |
| 20260507001516 | 59 | 94 | 0.0 | 4.0 | 0.01 | 0.24 | 0.24 | 96 | 1003.8 |
| 20260507000010 | 59 | 120 | 0.0 | 4.0 | 0.02 | 0.24 | 0.24 | 96 | 1003.7 |
| 20260506234510 | 59 | 210 | 0.0 | 4.0 | 0.04 | 0.24 | 0.24 | 96 | 1003.7 |
| 20260506233012 | 59 | 228 | 1.0 | 7.0 | 0.06 | 0.24 | 0.24 | 96 | 1003.7 |
| 20260506231507 | 59 | 287 | 0.0 | 3.0 | 0.06 | 0.23 | 0.23 | 95 | 1003.9 |
| 20260506230014 | 59 | 176 | 0.0 | 4.0 | 0.05 | 0.21 | 0.21 | 95 | 1004.1 |
| 20260506224504 | 59 | 221 | 2.0 | 8.0 | 0.03 | 0.19 | 0.19 | 95 | 1004.1 |
| 20260506223001 | 59 | 235 | 1.0 | 8.0 | 0.03 | 0.18 | 0.18 | 95 | 1004.2 |
| 20260506221631 | 59 | 146 | 0.0 | 8.0 | 0.03 | 0.17 | 0.17 | 95 | 1004.1 |
| 20260506220132 | 60 | 267 | 1.0 | 7.0 | 0.04 | 0.16 | 0.16 | 94 | 1004.3 |
| 20260506214600 | 60 | 234 | 0.0 | 3.0 | 0.05 | 0.16 | 0.16 | 94 | 1004.4 |
| 20260506213109 | 60 | 189 | 0.0 | 2.0 | 0.06 | 0.15 | 0.15 | 94 | 1004.8 |
| 20260506211558 | 60 | 202 | 0.0 | 4.0 | 0.08 | 0.14 | 0.14 | 93 | 1004.8 |
| 20260506210056 | 61 | 175 | 1.0 | 6.0 | 0.08 | 0.12 | 0.12 | 92 | 1004.9 |
| 20260506204556 | 61 | 226 | 0.0 | 4.0 | 0.08 | 0.11 | 0.11 | 91 | 1005.0 |
| 20260506203049 | 62 | 213 | 0.0 | 9.0 | 0.07 | 0.09 | 0.09 | 90 | 1004.8 |